This demonstration page uses our WeatherBlox Daily Observations layout. Learn more.

Left ArrowRight Arrow

Hourly Observations for July 5, 2021

Temp ( °F °C ) Dew Point ( °F °C ) Humidity (%) Winds ( mph kmh ) Pressure ( in mb ) Visibility ( mi km ) Precip ( " mm )
12:15 am 00:15 Cloudy 64 18 63 17 94 94 N N/A 29.99 1016 7 11 N/A
12:35 am 00:35 Mostly Cloudy 66 19 63 17 88 88 N N/A 30.00 1016 7 11 N/A
12:55 am 00:55 Clear 66 19 63 17 88 88 N N/A 30.00 1016 10 16 N/A
1:15 am 01:15 Clear 64 18 63 17 94 94 N N/A 30.00 1016 10 16 N/A
1:35 am 01:35 Clear 64 18 63 17 94 94 N N/A 29.99 1016 10 16 N/A
1:55 am 01:55 Clear 64 18 63 17 94 94 N N/A 30.00 1016 7 11 N/A
2:15 am 02:15 Clear 64 18 63 17 94 94 N N/A 29.99 1016 7 11 N/A
2:35 am 02:35 Clear 63 17 61 16 94 94 N N/A 30.01 1016 7 11 N/A
2:55 am 02:55 Clear 63 17 61 16 94 94 N N/A 30.00 1016 10 16 N/A
3:15 am 03:15 Clear 63 17 61 16 94 94 N N/A 30.01 1016 10 16 N/A
3:35 am 03:35 Clear 63 17 61 16 94 94 N 3 6 30.01 1016 10 16 N/A
3:55 am 03:55 Clear 61 16 61 16 100 100 N N/A 30.01 1016 10 16 N/A
4:15 am 04:15 Clear 61 16 59 15 94 94 NNW 3 6 30.01 1016 10 16 N/A
4:35 am 04:35 Clear 61 16 59 15 94 94 N N/A 30.01 1016 10 16 N/A
4:55 am 04:55 Clear 61 16 59 15 94 94 N N/A 30.01 1016 10 16 N/A
5:15 am 05:15 Clear 59 15 59 15 100 100 N 3 6 30.01 1016 7 11 N/A
5:35 am 05:35 Clear 59 15 59 15 100 100 N N/A 30.02 1017 7 11 N/A
5:55 am 05:55 Sunny with Mist and Fog 59 15 59 15 100 100 N N/A 30.02 1017 5 8 N/A
6:15 am 06:15 Sunny 59 15 59 15 100 100 N N/A 30.03 1017 7 11 N/A
6:35 am 06:35 Sunny with Mist and Fog 59 15 59 15 100 100 N N/A 30.03 1017 5 8 N/A
6:55 am 06:55 Sunny with Mist and Fog 59 15 59 15 100 100 N N/A 30.04 1017 5 8 N/A
7:15 am 07:15 Sunny 61 16 59 15 94 94 N N/A 30.05 1018 7 11 N/A
7:35 am 07:35 Sunny 63 17 59 15 88 88 N N/A 30.05 1017 7 11 N/A
7:55 am 07:55 Sunny 63 17 59 15 88 88 N N/A 30.06 1018 10 16 N/A
8:15 am 08:15 Sunny 64 18 61 16 88 88 NNW 3 6 30.06 1018 10 16 N/A
8:35 am 08:35 Sunny 66 19 61 16 83 83 N 3 6 30.06 1018 10 16 N/A
8:55 am 08:55 Sunny 68 20 61 16 78 78 N N/A 30.06 1018 10 16 N/A
9:15 am 09:15 Sunny 70 21 61 16 73 73 N N/A 30.06 1018 10 16 N/A
9:35 am 09:35 Sunny 72 22 63 17 73 73 N N/A 30.07 1018 10 16 N/A
9:55 am 09:55 Sunny 73 23 61 16 65 65 N N/A 30.07 1018 10 16 N/A
10:15 am 10:15 Sunny 73 23 61 16 65 65 N N/A 30.07 1018 10 16 N/A
10:35 am 10:35 Sunny 77 25 61 16 57 57 N N/A 30.06 1018 10 16 N/A
10:55 am 10:55 Sunny 77 25 63 17 61 61 ENE 3 6 30.06 1018 10 16 N/A
11:15 am 11:15 Sunny 79 26 63 17 58 58 N N/A 30.06 1018 10 16 N/A
11:35 am 11:35 Sunny 79 26 63 17 58 58 N N/A 30.07 1018 10 16 N/A
11:55 am 11:55 Sunny 81 27 63 17 54 54 SW 8 13 30.06 1018 10 16 N/A
12:15 pm 12:15 Sunny 81 27 63 17 54 54 N N/A 30.06 1018 10 16 N/A
12:35 pm 12:35 Sunny 82 28 64 18 55 55 SE 3 6 30.06 1018 10 16 N/A
12:55 pm 12:55 Sunny 82 28 64 18 55 55 N N/A 30.06 1018 10 16 N/A
1:15 pm 13:15 Sunny 82 28 64 18 55 55 W 7 11 30.06 1018 10 16 N/A
1:35 pm 13:35 Sunny 82 28 61 16 48 48 WNW 6 9 30.06 1018 10 16 N/A
1:55 pm 13:55 Partly Cloudy 84 29 63 17 48 48 SSW 5 7 30.05 1018 10 16 N/A
2:15 pm 14:15 Partly Cloudy 82 28 63 17 51 51 SW 5 7 30.04 1017 10 16 N/A
2:35 pm 14:35 Sunny 86 30 61 16 43 43 W 5 7 30.04 1017 10 16 N/A
2:55 pm 14:55 Partly Cloudy 86 30 64 18 49 49 SSW 6 9 30.04 1017 10 16 N/A
3:15 pm 15:15 Partly Cloudy 86 30 61 16 43 43 W 5 7 30.04 1017 10 16 N/A
3:35 pm 15:35 Sunny 86 30 63 17 46 46 W 10 17 30.04 1017 10 16 N/A
3:55 pm 15:55 Sunny 86 30 63 17 46 46 WSW 5 7 30.04 1017 10 16 N/A
4:15 pm 16:15 Sunny 86 30 64 18 49 49 N N/A 30.04 1017 10 16 N/A
4:35 pm 16:35 Sunny 86 30 63 17 46 46 WSW 6 9 30.04 1017 10 16 N/A
4:55 pm 16:55 Sunny 86 30 63 17 46 46 W 7 11 30.03 1017 10 16 N/A
5:15 pm 17:15 Sunny 86 30 64 18 49 49 WSW 5 7 30.03 1017 10 16 N/A
5:35 pm 17:35 Sunny 86 30 64 18 49 49 WSW 5 7 30.03 1017 10 16 N/A
5:55 pm 17:55 Sunny 86 30 63 17 46 46 SSW 5 7 30.03 1017 10 16 N/A
6:15 pm 18:15 Sunny 86 30 63 17 46 46 SSW 5 7 30.03 1017 10 16 N/A
6:35 pm 18:35 Sunny 86 30 64 18 49 49 S 5 7 30.03 1017 10 16 N/A
6:55 pm 18:55 Sunny 86 30 63 17 46 46 S 6 9 30.03 1017 10 16 N/A
7:15 pm 19:15 Sunny 86 30 64 18 49 49 SSW 3 6 30.03 1017 10 16 N/A
7:35 pm 19:35 Sunny 84 29 64 18 51 51 SSW 5 7 30.03 1017 10 16 N/A
7:55 pm 19:55 Sunny 82 28 64 18 55 55 SSW 3 6 30.03 1017 10 16 N/A
8:15 pm 20:15 Sunny 82 28 64 18 55 55 SSW 3 6 30.03 1017 10 16 N/A
8:35 pm 20:35 Sunny 81 27 64 18 58 58 SSW 5 7 30.03 1017 10 16 N/A
8:55 pm 20:55 Clear 81 27 64 18 58 58 SSW 5 7 30.03 1017 10 16 N/A
9:15 pm 21:15 Clear 79 26 66 19 65 65 SW 3 6 30.04 1017 10 16 N/A
9:35 pm 21:35 Clear 77 25 66 19 69 69 SSW 5 7 30.04 1017 10 16 N/A
9:55 pm 21:55 Clear 77 25 66 19 69 69 SSW 5 7 30.05 1018 10 16 N/A
10:15 pm 22:15 Clear 77 25 68 20 74 74 SSW 5 7 30.06 1018 10 16 N/A
10:55 pm 22:55 Clear 75 24 66 19 74 74 SSW 5 7 30.07 1018 10 16 N/A
11:15 pm 23:15 Clear 75 24 66 19 74 74 S 6 9 30.07 1018 10 16 N/A
11:35 pm 23:35 Clear 73 23 66 19 78 78 SSW 5 7 30.07 1018 10 16 N/A
11:55 pm 23:55 Clear 73 23 66 19 78 78 N N/A 30.07 1018 10 16 N/A

Powered by AerisWeather